Location: Czekan�w
(50.3488°N, 18.7344°E)
Time: 09:22:21
(UTC+00:00)

USA 215 - Pass Details

Date: 17 February 2020
Orbit: 1098 x 1110 km, 123.0° (Epoch: 08 March)

Event Time Altitude Azimuth Distance (km) Brightness Sun altitude
Rises 04:51:53 0° 85° (E) 3,915 8.1 -10.5°
Reaches altitude 10° 04:54:25 10° 81° (E) 2,959 6.9 -10.1°
Maximum altitude 05:00:42 52° 7° (N) 1,350 3.8 -9.1°
Drops below altitude 10° 05:06:59 10° 294° (WNW) 2,968 4.9 -8.1°
Enters shadow 05:07:21 - 293° (WNW) 3,101 5.0 -8.0°
